"Pseudo-MPEC" for P10NAV9

Created 2019 May 21 8:07:13 UT using Find_Orb

Click here for an explanation of pseudo-MPECs

 
 Astrometry: 
     P10NAV9  C2019 05 07sutFCAstrometryuw8,1;p`X0nredacted;)!3Gf=nhaDv+ypMJmF51
     P10NAV9  C2019 05 07/XW%?jigsjTikA+c5tJ3JV2@6:6:*W%b4^[$N#RrWAdR'Mg!Q!%aF51
     P10NAV9  C2019 05 07gx'j8xNo#k^bLj)nbaj9q-[L_6Q#+x_vkclick]J::;RBoFK=/faF51
     P10NAV9 |C2019 05 105ZXCo^\+j\.u5mKZ*PtEk'!gvHmmWYUF9gC.YmJy+IKe.!9SF@.4807
     P10NAV9 |C2019 05 10pV'dg:sh.:1p@Edjherea@jFCo1QpJ^km*a#e%kxY49D*3iHX*hH807
     P10NAV9 |C2019 05 10P2=;=gf]1IhLLSR=3*PGCO,1rTiWC7a/for.WLOCN2.wZ$.fuAqC807
     P10NAV9 |C2019 05 11:UOK')n8_T5m1B.j/B/PFq=um4!6(0?.8*)b^r/o4,#Y;sU$JUvg807
     P10NAV9 |C2019 05 11Pi!explanationRY)bx7Tn9]VwVeGDq$W2x27ggir0DJi'fAsuAg807
     P10NAV9 |C2019 05 114YCe5bf3ZkkFC#7EEXh=hfA1m-R@(N-pa*\vmHc'mT'62?51w#N@807

Station data:
(807) Cerro Tololo Observatory, La Serena  (S30.169136 W70.805900)  Chile.
(F51) Pan-STARRS 1, Haleakala  (N20.707235 W156.255910)  US/Hawaii.
   Observers N. Primak, A. Schultz, S. Watters, J. Thiel, T. Goggia. Measurer
   PS1 Science Consortium. 1.8-m Ritchey-Chrétien + CCD.

Orbital elements:  P10NAV9
   Perihelion 2019 Aug 6.070606 +/- 0.933 TT =  1:41:40 (JD 2458701.570606)
Epoch 2019 May 11.0 TT = JDT 2458614.5   Earth MOID: 0.1605   Ma: 0.0284
M 331.04319052 +/- 0.39             (J2000 ecliptic)          AutoNEOCP
n   0.33256699 +/- 0.00534          Peri.  252.28786 +/- 0.42
a   2.06324098 +/- 0.0221           Node    40.81980 +/- 0.12
e   0.4540940 +/- 0.0055            Incl.    6.76456 +/- 0.15
P   2.96                   H 22.1   G  0.15   U  9.2  
q 1.12633543 +/- 0.00212    Q 3.00014653 +/- 0.0431
From 9 observations 2019 May 7-11; mean residual 0".18
Residuals in arcseconds: 
190507 F51  .06-  .08+    190510 807  .07-  .52-    190511 807  .04-  .10-    
190507 F51  .10+  .07-    190510 807  .24+  .24+    190511 807  .05-  .04+    
190507 F51  .04-  .01-    190510 807  .17-  .29+    190511 807  .09+  .05+    

Ephemerides (geocentric):
Date (UTC) HH   RA              Dec         delta   r     elong  mag " sig PA
---- -- -- --  -------------   -----------  ------ ------ -----  --- ---- ---
2019 05 21 08  13 01 51.467   -09 02 24.37  .45350 1.3825 137.9 22.4 20.2 155
2019 05 21 09  13 01 48.539   -09 02 44.27  .45345 1.3822 137.9 22.4 20.3 155
2019 05 21 10  13 01 45.615   -09 03 04.19  .45339 1.3820 137.8 22.4 20.5 155
2019 05 21 11  13 01 42.696   -09 03 24.15  .45334 1.3818 137.8 22.4 20.6 155
2019 05 21 12  13 01 39.782   -09 03 44.15  .45328 1.3815 137.7 22.4 20.8 155
2019 05 21 13  13 01 36.873   -09 04 04.18  .45323 1.3813 137.7 22.4 20.9 155
2019 05 21 14  13 01 33.970   -09 04 24.24  .45317 1.3811 137.6 22.4 21.1 155
2019 05 21 15  13 01 31.071   -09 04 44.34  .45312 1.3808 137.6 22.4 21.2 155
2019 05 21 16  13 01 28.178   -09 05 04.48  .45306 1.3806 137.5 22.4 21.4 155
2019 05 21 17  13 01 25.289   -09 05 24.65  .45301 1.3804 137.5 22.4 21.5 155
2019 05 21 18  13 01 22.406   -09 05 44.86  .45295 1.3801 137.4 22.4 21.7 155
2019 05 21 19  13 01 19.527   -09 06 05.10  .45290 1.3799 137.4 22.4 21.8 155
2019 05 21 20  13 01 16.654   -09 06 25.37  .45285 1.3797 137.3 22.4 22.0 155
2019 05 21 21  13 01 13.786   -09 06 45.68  .45279 1.3794 137.3 22.4 22.2 155
2019 05 21 22  13 01 10.923   -09 07 06.03  .45274 1.3792 137.2 22.4 22.3 155
2019 05 21 23  13 01 08.065   -09 07 26.41  .45269 1.3790 137.2 22.4 22.5 155
2019 05 22 00  13 01 05.212   -09 07 46.82  .45263 1.3788 137.1 22.4 22.6 155
2019 05 22 01  13 01 02.364   -09 08 07.27  .45258 1.3785 137.1 22.4 22.8 155
2019 05 22 02  13 00 59.522   -09 08 27.76  .45253 1.3783 137.0 22.4 22.9 155
2019 05 22 03  13 00 56.684   -09 08 48.28  .45247 1.3781 137.0 22.4 23.1 155
2019 05 22 04  13 00 53.852   -09 09 08.83  .45242 1.3778 136.9 22.4 23.3 155
2019 05 22 05  13 00 51.025   -09 09 29.42  .45237 1.3776 136.9 22.4 23.4 154
2019 05 22 06  13 00 48.203   -09 09 50.05  .45232 1.3774 136.8 22.4 23.6 154
2019 05 22 07  13 00 45.386   -09 10 10.71  .45226 1.3771 136.8 22.4 23.7 154
2019 05 22 08  13 00 42.574   -09 10 31.41  .45221 1.3769 136.7 22.4 23.9 154
2019 05 22 09  13 00 39.768   -09 10 52.14  .45216 1.3767 136.7 22.4 24.1 154
2019 05 22 10  13 00 36.967   -09 11 12.91  .45211 1.3764 136.7 22.4 24.2 154
2019 05 22 11  13 00 34.170   -09 11 33.71  .45206 1.3762 136.6 22.4 24.4 154
2019 05 22 12  13 00 31.380   -09 11 54.54  .45201 1.3760 136.6 22.4 24.6 154
2019 05 22 13  13 00 28.594   -09 12 15.42  .45195 1.3757 136.5 22.4 24.7 154
2019 05 22 14  13 00 25.813   -09 12 36.32  .45190 1.3755 136.5 22.4 24.9 154
2019 05 22 15  13 00 23.038   -09 12 57.26  .45185 1.3753 136.4 22.4 25.1 154
2019 05 22 16  13 00 20.268   -09 13 18.24  .45180 1.3751 136.4 22.4 25.2 154
2019 05 22 17  13 00 17.503   -09 13 39.26  .45175 1.3748 136.3 22.4 25.4 154
2019 05 22 18  13 00 14.744   -09 14 00.30  .45170 1.3746 136.3 22.4 25.6 154
2019 05 22 19  13 00 11.990   -09 14 21.39  .45165 1.3744 136.2 22.4 25.7 154
2019 05 22 20  13 00 09.241   -09 14 42.51  .45160 1.3741 136.2 22.4 25.9 154
2019 05 22 21  13 00 06.497   -09 15 03.66  .45155 1.3739 136.1 22.4 26.1 154
2019 05 22 22  13 00 03.758   -09 15 24.85  .45150 1.3737 136.1 22.4 26.2 154
2019 05 22 23  13 00 01.025   -09 15 46.07  .45145 1.3734 136.0 22.4 26.4 154
2019 05 23 00  12 59 58.297   -09 16 07.33  .45140 1.3732 136.0 22.4 26.6 154
2019 05 23 01  12 59 55.575   -09 16 28.63  .45135 1.3730 135.9 22.4 26.8 154
2019 05 23 02  12 59 52.858   -09 16 49.96  .45130 1.3728 135.9 22.4 26.9 154
2019 05 23 03  12 59 50.146   -09 17 11.32  .45125 1.3725 135.8 22.4 27.1 154
2019 05 23 04  12 59 47.439   -09 17 32.72  .45120 1.3723 135.8 22.4 27.3 154
2019 05 23 05  12 59 44.738   -09 17 54.16  .45116 1.3721 135.7 22.4 27.5 154
2019 05 23 06  12 59 42.042   -09 18 15.63  .45111 1.3718 135.7 22.4 27.6 154
2019 05 23 07  12 59 39.351   -09 18 37.14  .45106 1.3716 135.6 22.4 27.8 154